Flag for France Weather past 2 weeks in Bastia, Corsica, France

Now
63 °F

Passing clouds.


Feels Like: 63 °F
Forecast: 53 / 64 °F
Wind: 7 mph from Southeast

Location: Bastia Airport

Current Time: Mar 29, 2015 at 1:36:58 PM

Latest Report: Mar 29, 2015 at 1:00 PM


Visibility: N/A

Pressure: 29.92 "Hg

Humidity: 59%

Dew point: 48 °F

Location of BastiaLocation

Historic Weather in Bastia — Graph

°F

Bastia temperature yesterday

Maximum temperature yesterday: 63 °F (at 11:30 AM)
Minimum temperature yesterday: 45 °F (at 4:06 AM)
Average temperature yesterday: 54 °F

Past Weeks' High & Low Weather Summary

 TemperatureHumidityPressure
High66 °F (Mar 27, 12:00 PM)100% (Mar 15, 1:00 AM)30.21 "Hg (Mar 15, 1:00 AM)
Low41 °F (Mar 20, 3:00 AM)40% (Mar 27, 3:30 PM)29.27 "Hg (Mar 25, 3:00 PM)
Average54 °F83%29.94 "Hg
* Reported Mar 14 11:08 AM — Mar 29 12:30 PM, Bastia, Weather by CustomWeather, © 2015

Note: Actual official high and low records may vary slightly from our data, if they occured in-between our weather recording intervals... More about our weather records

Advertising

Bastia weather history for previous 24 hours

 ConditionsComfort  
Time TempWeatherWind HumidityBarometerVisibility
12:30 PM
Sun, Mar 29
63 °FPassing clouds.7 mph59%29.95 "HgN/A
12:00 PM63 °FSunny.7 mph56%29.95 "Hg10 mi
11:30 AM61 °FPassing clouds.6 mph55%29.95 "HgN/A
11:00 AM61 °FSunny.6 mph55%29.95 "Hg10 mi
10:30 AM61 °FSunny.1 mph48%29.95 "Hg10 mi
10:08 AM61 °FSunny.No wind45%29.95 "Hg10 mi
9:30 AM57 °FSunny.1 mph51%29.95 "Hg10 mi
9:00 AM52 °FSunny.3 mph58%29.95 "Hg10 mi
8:30 AM48 °FSunny.5 mph62%29.95 "Hg10 mi
8:00 AM45 °FClear.2 mph71%29.95 "Hg10 mi
7:30 AM43 °FClear.3 mph71%29.95 "Hg10 mi
7:00 AM43 °FPassing clouds.5 mph66%29.92 "HgN/A
6:30 AM45 °FClear.5 mph61%29.92 "Hg10 mi
6:00 AM43 °FClear.5 mph71%29.92 "Hg10 mi
5:30 AM45 °FClear.6 mph66%29.92 "Hg10 mi
5:00 AM46 °FPassing clouds.3 mph57%29.95 "HgN/A
4:30 AM48 °FPassing clouds.3 mph58%29.95 "HgN/A
4:00 AM48 °FClear.6 mph54%29.95 "HgN/A
3:30 AM48 °FClear.8 mph58%29.95 "HgN/A
3:00 AM50 °FClear.8 mph50%29.95 "HgN/A
1:30 AM52 °FClear.9 mph47%29.98 "HgN/A
1:00 AM50 °FClear.6 mph50%29.98 "HgN/A
12:30 AM48 °FClear.7 mph62%29.98 "HgN/A
12:00 AM52 °FMostly cloudy.5 mph47%29.98 "HgN/A
11:30 PM
Sat, Mar 28
52 °FMostly cloudy.5 mph50%29.98 "HgN/A
11:00 PM54 °FPassing clouds.9 mph41%29.98 "HgN/A
10:30 PM54 °FPassing clouds.12 mph41%29.98 "HgN/A
10:00 PM54 °FPassing clouds.10 mph44%29.98 "HgN/A
9:30 PM52 °FPassing clouds.7 mph50%29.98 "HgN/A
9:00 PM54 °FPassing clouds.6 mph47%29.98 "HgN/A
8:30 PM52 °FPassing clouds.3 mph54%29.98 "HgN/A
8:00 PM50 °FPassing clouds.No wind71%29.98 "HgN/A
7:30 PM52 °FPassing clouds.3 mph67%29.98 "HgN/A
7:00 PM54 °FPassing clouds.3 mph67%29.95 "HgN/A
6:30 PM57 °FSunny.2 mph55%29.95 "Hg10 mi
6:00 PM61 °FSunny.5 mph52%29.95 "Hg10 mi
5:30 PM61 °FSunny.8 mph52%29.95 "Hg10 mi
5:00 PM63 °FSunny.8 mph52%29.95 "Hg10 mi
4:30 PM63 °FSunny.10 mph52%29.95 "Hg10 mi
4:00 PM63 °FSunny.10 mph52%29.95 "Hg10 mi
3:30 PM63 °FSunny.12 mph59%29.95 "Hg10 mi
3:00 PM63 °FSunny.12 mph59%29.98 "Hg10 mi
2:30 PM63 °FPassing clouds.9 mph56%29.98 "HgN/A
2:00 PM63 °FPassing clouds.8 mph59%29.98 "HgN/A
1:30 PM63 °FPassing clouds.13 mph52%29.98 "HgN/A
1:00 PM63 °FPassing clouds.12 mph64%29.98 "HgN/A
Weather by CustomWeather, © 2015

See weather overviewHow to use our weather pages